USA 115 (MILSTAR-1 2)

Last updated on Thu Oct 30 2025 00:02:47 GMT+0000 (Coordinated Universal Time)

1 23712U 95060A 25302.36331398 -.00000009 00000+0 00000+0 0 9991 2 23712 13.9886 5.4381 0001971 224.6313 178.6677 1.00272740 30572
UTC large
Height (km)
Speed (km/s)
/
Latitude / Longitude
Inclination (degrees)
Orbital Period (minutes)
Azimuth
Elevation
Range (km)
Doppler Factor

Next 0 passes for location: London (51.5072 / 0.1276)

Sorry there are no passes over London.